Zurück zum Katalog

THORAD DELTA 1 DEB

AktivLEO
NORAD 42610·DEBRIS·🇺🇸 United States

Gestartet Nov 15, 1974 von Vandenberg Space Force Base

Loading…

Nächste Überflüge (nächste 24 Stunden)

TLE

VeraltetSource: Space-Track

Epoche: Sep 3, 2026, 08:23 UTC

1 42610U 74089GB  26246.34945286 -.00000036  00000-0  37711-4 0  9995
2 42610 101.3767 107.8275 0079473 341.3862  18.4303 12.40375480578897

Verfolge THORAD DELTA 1 DEB in Echtzeit mit AllMySat

Download on the App Store